QPF
0.00 0.00 0.00 0.00 0.00 0.00 0.00 0.00 0.00 0.00 0.00 0.00 0.00 0.00 0.00 0.00 0.00 0.00 0.00 0.00 0.00 0.00 0.00 0.00 0.00 0.00 0.00 0.00 0.00 0.00 0.01 0.00 0.00 0.02 0.01 0.00 0.00 0.00 0.00 0.00 0.00 0.06 0.06 0.01
0.00 0.00 0.00 0.00 0.00 0.00 0.00 0.00 0.00 0.00 0.00 0.00 0.00 0.00 0.00 0.00 0.00 0.00 0.00 0.00 0.00 0.00 0.00 0.00 0.00 0.00 0.00 0.00 0.00 0.00 0.01 0.00 0.00 0.01 0.00 0.00 0.00 0.00 0.00 0.00 0.00 0.03 0.10 0.07
0.00 0.00 0.00 0.00 0.00 0.00 0.00 0.00 0.00 0.00 0.00 0.00 0.00 0.00 0.00 0.00 0.00 0.00 0.00 0.00 0.00 0.00 0.00 0.00 0.00 0.00 0.00 0.00 0.00 0.00 0.00 0.00 0.00 0.00 0.00 0.00 0.00 0.00 0.00 0.01 0.02 0.03 0.04 0.08
0.00 0.00 0.00 0.00 0.00 0.00 0.00 0.00 0.00 0.00 0.00 0.00 0.00 0.00 0.00 0.00 0.00 0.00 0.00 0.00 0.00 0.00 0.00 0.00 0.00 0.00 0.00 0.00 0.00 0.00 0.00 0.00 0.00 0.00 0.00 0.00 0.00 0.00 0.00 0.02 0.03 0.06 0.02 0.02
0.00 0.00 0.00 0.00 0.00 0.00 0.00 0.00 0.00 0.00 0.00 0.00 0.00 0.00 0.00 0.00 0.00 0.00 0.00 0.00 0.00 0.00 0.00 0.00 0.00 0.00 0.00 0.00 0.00 0.00 0.00 0.01 0.00 0.00 0.00 0.00 0.00 0.00 0.00 0.02 0.04 0.07 0.06 0.01
0.00 0.00 0.00 0.00 0.00 0.00 0.00 0.00 0.00 0.00 0.00 0.00 0.00 0.00 0.00 0.00 0.00 0.00 0.00 0.00 0.00 0.00 0.00 0.00 0.00 0.00 0.00 0.00 0.00 0.00 0.00 0.01 0.01 0.00 0.00 0.00 0.00 0.05 0.05 0.04 0.04 0.03 0.02 0.01
0.00 0.00 0.00 0.00 0.00 0.00 0.00 0.00 0.00 0.00 0.00 0.00 0.00 0.00 0.00 0.00 0.00 0.00 0.00 0.00 0.00 0.00 0.00 0.00 0.00 0.00 0.00 0.00 0.00 0.00 0.00 0.02 0.00 0.00 0.00 0.00 0.00 0.03 0.04 0.04 0.01 0.00 0.00 0.00
0.00 0.00 0.00 0.00 0.00 0.00 0.00 0.00 0.00 0.00 0.00 0.00 0.00 0.00 0.00 0.00 0.00 0.00 0.00 0.00 0.00 0.00 0.00 0.00 0.00 0.00 0.00 0.00 0.00 0.00 0.00 0.02 0.02 0.00 0.00 0.00 0.01 0.12 0.11 0.02 0.00 0.00 0.00 0.00
0.00 0.00 0.00 0.00 0.00 0.00 0.00 0.00 0.00 0.00 0.00 0.00 0.00 0.00 0.00 0.00 0.00 0.00 0.00 0.00 0.00 0.00 0.00 0.00 0.00 0.00 0.00 0.00 0.00 0.00 0.00 0.01 0.00 0.00 0.00 0.05 0.20 0.32 0.34 0.04 0.00 0.00 0.00 0.00
0.00 0.00 0.00 0.00 0.00 0.00 0.00 0.00 0.00 0.00 0.00 0.00 0.00 0.00 0.00 0.00 0.00 0.00 0.00 0.00 0.00 0.00 0.00 0.00 0.00 0.00 0.00 0.00 0.00 0.00 0.00 0.01 0.01 0.00 0.02 0.24 0.34 0.28 0.13 0.01 0.00 0.00 0.00 0.00
0.00 0.00 0.00 0.00 0.00 0.00 0.00 0.00 0.00 0.00 0.00 0.00 0.00 0.00 0.00 0.00 0.00 0.00 0.00 0.00 0.00 0.00 0.00 0.00 0.00 0.00 0.00 0.01 0.00 0.01 0.00 0.00 0.01 0.00 0.01 0.14 0.17 0.15 0.03 0.00 0.00 0.00 0.00 0.00
0.00 0.00 0.00 0.00 0.00 0.00 0.00 0.00 0.00 0.00 0.00 0.00 0.00 0.00 0.00 0.00 0.00 0.00 0.00 0.00 0.00 0.00 0.00 0.00 0.00 0.00 0.00 0.01 0.00 0.00 0.00 0.00 0.00 0.00 0.00 0.00 0.00 0.03 0.03 0.00 0.00 0.00 0.00 0.00
0.00 0.00 0.00 0.00 0.00 0.00 0.00 0.00 0.00 0.00 0.00 0.00 0.00 0.00 0.00 0.00 0.00 0.00 0.00 0.00 0.00 0.00 0.00 0.00 0.00 0.00 0.00 0.01 0.00 0.00 0.01 0.01 0.00 0.00 0.00 0.00 0.00 0.03 0.01 0.00 0.00 0.00 0.00 0.00
0.00 0.00 0.00 0.00 0.00 0.00 0.00 0.00 0.00 0.00 0.00 0.00 0.00 0.00 0.00 0.00 0.01 0.01 0.00 0.00 0.00 0.00 0.00 0.00 0.00 0.01 0.00 0.00 0.00 0.02 0.00 0.00 0.00 0.00 0.00 0.00 0.00 0.01 0.00 0.00 0.00 0.00 0.00 0.00
0.00 0.00 0.00 0.00 0.00 0.00 0.00 0.00 0.00 0.00 0.00 0.00 0.00 0.00 0.02 0.02 0.06 0.08 0.03 0.00 0.00 0.00 0.00 0.00 0.00 0.00 0.02 0.05 0.00 0.02 0.00 0.00 0.00 0.00 0.00 0.00 0.01 0.00 0.00 0.00 0.00 0.00 0.00 0.00
0.00 0.00 0.00 0.00 0.00 0.00 0.00 0.00 0.00 0.00 0.00 0.00 0.00 0.00 0.00 0.01 0.02 0.03 0.01 0.00 0.00 0.00 0.00 0.00 0.00 0.00 0.03 0.03 0.00 0.00 0.00 0.00 0.00 0.00 0.00 0.00 0.01 0.00 0.00 0.03 0.01 0.00 0.00 0.00
0.00 0.00 0.00 0.00 0.00 0.00 0.00 0.00 0.00 0.00 0.00 0.00 0.00 0.00 0.00 0.00 0.00 0.00 0.00 0.00 0.00 0.00 0.00 0.00 0.00 0.00 0.01 0.01 0.00 0.00 0.00 0.00 0.00 0.00 0.01 0.01 0.06 0.05 0.07 0.08 0.08 0.02 0.00 0.00
0.00 0.00 0.00 0.00 0.00 0.00 0.00 0.00 0.00 0.00 0.00 0.00 0.00 0.00 0.00 0.00 0.00 0.00 0.00 0.00 0.00 0.00 0.00 0.00 0.00 0.00 0.00 0.00 0.00 0.00 0.00 0.00 0.00 0.01 0.02 0.02 0.03 0.03 0.04 0.07 0.09 0.06 0.04 0.01
0.00 0.00 0.00 0.00 0.00 0.00 0.00 0.00 0.00 0.00 0.00 0.00 0.00 0.00 0.00 0.00 0.00 0.00 0.00 0.00 0.00 0.00 0.00 0.00 0.00 0.02 0.00 0.00 0.00 0.00 0.00 0.00 0.00 0.01 0.04 0.01 0.01 0.05 0.01 0.02 0.04 0.09 0.16 0.03
0.00 0.00 0.00 0.00 0.00 0.00 0.00 0.00 0.00 0.00 0.00 0.00 0.00 0.00 0.00 0.00 0.00 0.00 0.00 0.00 0.00 0.00 0.00 0.00 0.00 0.01 0.04 0.02 0.00 0.02 0.00 0.00 0.00 0.00 0.02 0.03 0.00 0.00 0.00 0.02 0.03 0.01 0.03 0.00
0.00 0.00 0.00 0.00 0.00 0.00 0.00 0.00 0.00 0.00 0.00 0.00 0.00 0.00 0.00 0.00 0.00 0.00 0.00 0.00 0.00 0.00 0.00 0.00 0.00 0.01 0.04 0.03 0.03 0.00 0.00 0.00 0.00 0.00 0.00 0.02 0.01 0.00 0.00 0.02 0.00 0.00 0.01 0.00
0.00 0.00 0.00 0.00 0.00 0.03 0.01 0.02 0.01 0.00 0.00 0.00 0.00 0.00 0.00 0.00 0.00 0.00 0.00 0.00 0.00 0.00 0.00 0.00 0.00 0.02 0.04 0.03 0.04 0.01 0.00 0.00 0.00 0.02 0.04 0.03 0.01 0.00 0.02 0.04 0.00 0.00 0.05 0.03
0.00 0.00 0.00 0.00 0.00 0.01 0.03 0.09 0.03 0.00 0.00 0.00 0.00 0.00 0.00 0.00 0.00 0.00 0.00 0.00 0.00 0.00 0.00 0.00 0.00 0.01 0.05 0.07 0.04 0.03 0.02 0.01 0.01 0.01 0.01 0.01 0.04 0.07 0.10 0.13 0.07 0.00 0.03 0.09
0.00 0.00 0.00 0.01 0.05 0.01 0.00 0.01 0.03 0.04 0.00 0.00 0.00 0.00 0.00 0.00 0.00 0.00 0.00 0.00 0.00 0.00 0.00 0.00 0.00 0.00 0.04 0.06 0.08 0.09 0.02 0.05 0.04 0.02 0.01 0.01 0.02 0.02 0.02 0.03 0.05 0.05 0.01 0.05
0.00 0.00 0.00 0.00 0.00 0.01 0.03 0.00 0.00 0.00 0.00 0.00 0.00 0.00 0.00 0.00 0.00 0.00 0.00 0.00 0.00 0.00 0.00 0.00 0.00 0.00 0.01 0.01 0.01 0.00 0.00 0.00 0.00 0.00 0.01 0.02 0.00 0.00 0.00 0.01 0.01 0.01 0.00 0.01
0.00 0.01 0.00 0.02 0.05 0.04 0.12 0.00 0.00 0.00 0.00 0.00 0.00 0.00 0.00 0.00 0.00 0.00 0.00 0.00 0.00 0.00 0.00 0.00 0.00 0.00 0.00 0.00 0.00 0.00 0.00 0.00 0.00 0.00 0.00 0.00 0.00 0.00 0.00 0.00 0.00 0.00 0.00 0.00
MSLP
1001.36 1001.30 1000.68 1000.11 999.62 999.30 1001.15 1003.09 1003.72 1002.03 1000.64 999.95 999.71 999.24 999.15 999.62 999.85 999.97 1000.40 1000.81 1002.36 1004.01 1005.35 1006.44 1007.41 1008.00 1008.74 1009.54 1010.37 1011.14 1011.95 1012.66 1013.14 1013.30 1013.64 1013.88 1014.11 1014.76 1014.83 1014.84 1014.74 1014.61 1014.80 1015.26
1000.92 1000.19 1000.02 999.78 999.29 999.01 999.25 1000.57 1000.59 1000.25 999.37 999.41 999.00 998.51 998.40 998.68 999.06 999.02 999.14 997.67 1001.16 1003.00 1004.61 1005.79 1006.82 1007.78 1008.50 1009.30 1010.14 1010.92 1011.66 1012.36 1013.09 1013.18 1013.23 1013.40 1013.83 1014.22 1014.50 1014.25 1014.37 1014.21 1014.15 1014.49
1000.23 999.57 999.34 999.48 998.97 998.88 999.13 999.11 998.98 998.82 998.21 998.63 998.82 998.54 998.45 998.69 998.76 998.95 999.22 999.89 1000.78 1002.13 1003.71 1005.24 1006.42 1007.28 1008.15 1008.95 1009.82 1010.71 1011.68 1012.43 1012.82 1013.15 1013.47 1013.68 1013.95 1014.09 1014.06 1013.74 1013.82 1013.91 1013.72 1014.19
999.97 999.46 999.14 998.90 998.98 999.13 998.87 999.05 998.99 998.82 998.48 998.52 998.76 999.20 998.76 999.79 1000.00 998.86 999.11 999.22 1000.13 1001.46 1003.18 1004.70 1006.04 1006.96 1007.74 1008.53 1009.46 1010.39 1011.48 1012.18 1012.48 1012.95 1013.04 1013.31 1013.55 1013.45 1013.35 1013.64 1013.76 1013.92 1013.87 1013.96
999.64 999.44 999.16 999.29 999.21 999.22 999.10 998.91 998.87 998.53 998.89 999.25 999.37 1000.19 998.86 1000.18 1000.96 998.49 998.62 999.22 999.80 1001.10 1002.82 1004.22 1005.44 1006.54 1007.37 1008.17 1009.23 1010.38 1011.43 1011.98 1012.34 1012.81 1012.81 1013.09 1013.18 1013.13 1013.24 1013.64 1013.77 1014.06 1013.95 1013.74
999.84 999.22 999.04 998.90 999.13 998.97 999.15 999.18 999.25 999.15 999.38 999.40 999.43 999.26 999.70 1001.13 1000.07 998.58 998.70 999.55 999.96 1001.06 1002.33 1003.73 1004.95 1006.03 1007.06 1007.95 1009.07 1010.24 1011.22 1011.91 1012.27 1012.77 1012.91 1013.06 1012.99 1013.20 1013.44 1013.78 1013.74 1013.78 1013.67 1013.88
999.68 999.38 999.24 999.14 998.97 998.84 999.16 999.16 999.55 999.67 999.48 999.13 999.11 998.84 998.50 998.55 998.86 998.88 998.92 999.52 1000.16 1001.04 1002.11 1003.40 1004.72 1005.98 1007.04 1008.05 1009.12 1010.15 1011.24 1011.80 1012.31 1012.69 1012.83 1012.96 1012.82 1013.20 1013.46 1013.63 1013.60 1013.54 1013.74 1014.16
999.19 998.75 998.72 998.82 998.76 998.47 999.08 999.25 999.15 998.91 998.83 1000.34 1000.46 1000.18 998.84 998.67 998.90 999.01 999.20 999.36 999.98 1000.92 1001.67 1003.07 1004.49 1005.92 1007.17 1008.22 1009.12 1009.92 1011.24 1012.05 1012.37 1012.56 1012.80 1013.03 1013.23 1013.66 1013.76 1013.86 1013.92 1014.15 1014.22 1014.52
998.39 997.85 997.34 998.00 998.41 998.74 998.54 999.06 999.25 999.19 999.19 999.83 1001.14 1002.39 1000.45 999.50 999.18 999.02 999.24 999.50 1000.23 1001.04 1001.89 1003.08 1004.33 1005.83 1007.18 1008.24 1009.22 1009.86 1011.16 1011.85 1012.15 1012.40 1012.84 1013.25 1013.70 1014.06 1014.71 1013.98 1014.36 1014.68 1014.79 1014.96
998.53 998.25 997.40 997.35 998.04 998.35 998.17 998.39 998.96 999.29 999.67 1000.26 1000.40 1001.76 1002.66 1000.82 1000.02 999.91 999.91 1000.32 1001.00 1001.55 1002.21 1003.28 1004.47 1005.80 1007.06 1008.04 1009.09 1010.02 1011.19 1011.82 1012.18 1012.60 1013.52 1014.08 1014.23 1014.48 1014.67 1014.49 1014.86 1014.99 1015.23 1015.26
998.74 998.94 997.94 997.45 997.92 997.86 998.13 998.36 998.71 998.69 999.41 1000.90 1002.99 1004.40 1004.30 1003.66 1001.85 1000.61 1000.62 1001.02 1001.87 1002.09 1002.70 1003.52 1004.33 1005.46 1006.70 1007.97 1008.85 1010.44 1011.20 1012.03 1012.74 1013.60 1014.13 1014.68 1014.69 1013.85 1014.69 1014.58 1014.99 1015.14 1015.39 1015.41
998.70 998.95 998.68 997.86 997.41 997.99 998.06 998.06 998.63 998.94 999.52 1000.52 1002.33 1003.08 1004.18 1002.92 1001.60 1001.29 1001.41 1001.52 1002.08 1002.36 1002.75 1003.61 1004.28 1005.48 1006.90 1007.99 1008.98 1010.16 1011.46 1012.50 1013.21 1013.96 1014.60 1015.06 1015.10 1014.89 1015.10 1014.89 1015.02 1015.48 1015.55 1015.64
999.34 999.28 999.09 998.54 997.80 997.47 997.76 997.95 997.98 998.64 999.66 1000.34 1001.54 1002.49 1003.54 1003.67 1002.09 1002.15 1002.37 1002.57 1003.10 1003.10 1003.41 1004.10 1004.76 1006.10 1007.39 1008.48 1009.30 1010.62 1011.79 1012.78 1013.52 1014.05 1014.43 1014.79 1015.00 1014.90 1014.73 1014.80 1015.11 1015.39 1015.51 1015.80
1000.18 999.39 999.42 998.81 998.16 997.46 997.50 997.88 998.00 998.30 998.75 999.44 1000.35 1002.26 1004.66 1004.86 1005.34 1005.54 1004.06 1003.70 1003.72 1003.91 1004.41 1004.90 1005.58 1006.85 1008.02 1008.90 1010.06 1011.27 1011.86 1012.91 1013.50 1013.97 1014.16 1014.41 1014.53 1014.66 1014.77 1015.03 1015.35 1015.67 1015.84 1015.98
1000.49 1000.17 1000.03 999.43 998.79 998.14 997.58 997.20 997.40 997.91 998.52 999.32 1000.32 1002.74 1005.27 1006.35 1006.68 1007.79 1007.66 1004.80 1004.30 1004.40 1004.97 1005.50 1006.22 1007.38 1008.54 1009.34 1010.15 1011.05 1011.46 1012.67 1013.32 1013.70 1013.82 1014.20 1014.40 1014.51 1014.94 1015.30 1015.51 1015.78 1015.95 1016.14
1000.77 1000.80 1000.86 1000.18 999.61 998.93 997.96 997.23 997.32 997.12 997.67 998.71 1000.34 1003.30 1004.84 1005.87 1006.73 1010.06 1007.89 1005.98 1004.98 1005.06 1005.43 1005.88 1006.57 1007.23 1008.18 1009.16 1009.80 1010.58 1011.55 1012.52 1013.16 1013.43 1013.78 1014.09 1014.49 1014.77 1015.24 1015.60 1015.85 1016.01 1016.17 1016.33
1001.10 1001.19 1001.30 1000.69 1000.03 999.24 998.10 997.50 997.03 996.79 997.08 998.18 999.49 1002.25 1004.79 1005.56 1006.58 1006.41 1006.58 1005.87 1005.36 1005.41 1006.04 1006.28 1006.80 1007.42 1008.43 1008.79 1009.53 1010.38 1011.16 1012.15 1012.90 1013.22 1013.50 1014.08 1014.65 1015.04 1015.42 1015.91 1016.23 1016.21 1016.28 1016.49
1001.69 1001.65 1001.49 1001.14 1000.55 999.16 998.46 997.60 997.19 997.22 997.34 998.27 1000.04 1002.18 1003.90 1004.49 1005.50 1005.82 1005.52 1005.68 1005.96 1006.15 1006.66 1006.78 1007.17 1007.80 1008.59 1008.98 1009.66 1010.30 1010.96 1011.74 1012.39 1012.85 1013.20 1013.84 1014.45 1014.86 1015.28 1015.99 1016.41 1016.36 1016.48 1016.60
1001.82 1002.10 1001.79 1001.72 1000.78 999.83 998.69 998.20 997.19 997.12 997.74 998.27 1000.53 1003.04 1003.84 1004.30 1005.51 1006.36 1006.25 1006.26 1006.46 1007.32 1007.87 1008.09 1008.35 1008.41 1008.65 1009.30 1009.88 1010.56 1011.10 1011.46 1011.74 1012.52 1013.00 1013.65 1014.11 1014.89 1015.33 1015.93 1016.22 1016.44 1016.60 1016.94
1001.82 1002.09 1002.61 1001.90 1000.97 1000.13 999.24 999.20 998.51 997.50 998.43 999.70 1001.47 1003.87 1006.12 1006.28 1005.66 1006.27 1006.92 1007.23 1007.14 1008.16 1008.84 1009.00 1008.84 1008.61 1009.32 1009.66 1010.03 1010.58 1011.10 1011.36 1011.75 1011.97 1012.62 1013.20 1013.86 1014.57 1015.06 1015.52 1015.89 1016.18 1016.61 1016.91
1002.01 1002.46 1002.43 1002.50 1002.13 1001.41 1001.87 1000.56 999.49 1000.22 1001.22 1000.20 1000.64 1001.68 1003.48 1004.70 1005.22 1006.34 1007.50 1007.60 1007.80 1008.55 1009.74 1009.44 1009.29 1009.17 1009.63 1010.03 1010.52 1010.64 1010.96 1011.22 1011.51 1011.83 1012.40 1013.07 1013.68 1014.32 1014.75 1015.08 1015.66 1016.12 1016.53 1016.83
1003.08 1003.64 1003.53 1003.37 1003.12 1003.32 1003.86 1002.93 1003.08 1003.32 1001.74 1001.66 1000.87 1001.49 1003.28 1004.88 1005.84 1006.68 1007.04 1006.92 1007.81 1009.17 1009.98 1010.09 1010.30 1010.54 1010.69 1010.77 1010.96 1011.02 1011.17 1011.22 1011.40 1011.68 1012.28 1013.06 1013.51 1013.94 1014.46 1014.89 1015.44 1015.95 1016.32 1016.77
1005.20 1006.62 1007.96 1007.02 1005.24 1006.02 1006.25 1006.17 1005.32 1004.41 1004.20 1002.28 1002.43 1002.62 1003.48 1004.20 1005.00 1005.98 1006.71 1007.38 1008.33 1009.24 1009.98 1010.60 1011.11 1011.48 1011.88 1011.68 1011.96 1011.79 1011.92 1011.96 1012.10 1012.62 1012.99 1013.23 1013.62 1013.91 1014.22 1014.72 1015.22 1015.65 1016.04 1016.46
1006.52 1008.01 1008.08 1008.56 1007.60 1006.76 1006.18 1006.48 1006.78 1006.62 1004.25 1003.09 1003.88 1003.40 1003.42 1004.05 1005.40 1006.44 1007.36 1008.04 1008.81 1009.39 1009.80 1010.56 1010.99 1011.90 1012.58 1012.68 1012.51 1012.95 1012.52 1012.72 1013.14 1013.09 1013.38 1013.56 1013.91 1014.42 1014.86 1014.98 1015.31 1015.64 1015.80 1016.17
1009.25 1009.54 1009.67 1008.34 1007.22 1007.11 1006.11 1006.40 1005.74 1005.70 1005.84 1005.29 1004.77 1003.47 1004.02 1005.08 1006.03 1006.95 1008.06 1008.85 1009.44 1009.88 1010.15 1010.50 1011.30 1011.82 1012.60 1012.83 1012.87 1012.94 1013.04 1013.16 1013.35 1013.47 1013.72 1013.95 1014.32 1014.90 1015.57 1016.22 1016.44 1016.34 1015.83 1016.05
1009.77 1011.26 1011.84 1011.39 1009.62 1006.00 1006.66 1005.96 1004.90 1004.96 1005.73 1004.80 1004.46 1004.50 1004.92 1005.73 1006.37 1007.15 1008.32 1008.93 1009.29 1010.08 1010.36 1010.73 1011.34 1011.81 1012.34 1012.76 1013.14 1013.34 1013.46 1013.44 1013.58 1013.72 1013.80 1013.98 1014.26 1014.90 1015.76 1016.44 1016.81 1016.93 1016.66 1016.42
Thickness
5854 5833 5825 5847 5867 5877 5835 5814 5800 5840 5867 5874 5872 5881 5893 5893 5896 5890 5878 5870 5863 5856 5856 5851 5842 5837 5830 5823 5813 5803 5792 5783 5777 5772 5763 5756 5750 5744 5743 5744 5745 5748 5748 5742
5839 5828 5856 5869 5876 5877 5871 5831 5838 5858 5883 5877 5876 5880 5898 5899 5893 5898 5891 5860 5866 5863 5855 5850 5843 5836 5829 5821 5813 5805 5796 5787 5778 5776 5771 5765 5757 5751 5747 5748 5749 5751 5753 5749
5829 5852 5873 5863 5865 5861 5862 5857 5863 5867 5887 5886 5874 5865 5881 5885 5895 5898 5896 5888 5880 5869 5856 5848 5841 5836 5831 5822 5814 5805 5797 5788 5782 5777 5771 5765 5759 5753 5751 5751 5751 5753 5756 5751
5840 5866 5860 5858 5850 5859 5842 5873 5872 5867 5863 5840 5876 5814 5868 5858 5855 5882 5886 5888 5884 5873 5862 5853 5843 5836 5832 5825 5820 5808 5797 5789 5785 5778 5772 5767 5759 5755 5758 5755 5752 5750 5750 5750
5834 5845 5847 5838 5846 5861 5847 5876 5868 5871 5856 5851 5854 5822 5860 5858 5829 5881 5885 5886 5890 5877 5862 5855 5847 5840 5836 5830 5819 5808 5797 5789 5784 5776 5773 5767 5763 5763 5761 5755 5753 5748 5750 5751
5842 5870 5861 5857 5862 5866 5872 5861 5859 5862 5852 5820 5847 5849 5840 5802 5833 5876 5881 5880 5884 5875 5868 5860 5854 5847 5836 5831 5820 5809 5796 5786 5781 5774 5770 5765 5763 5760 5756 5753 5752 5751 5752 5751
5832 5838 5857 5863 5845 5863 5856 5843 5806 5802 5810 5811 5863 5851 5861 5871 5876 5877 5872 5874 5877 5874 5867 5858 5848 5839 5832 5824 5815 5807 5793 5784 5778 5772 5768 5763 5762 5758 5754 5752 5751 5751 5749 5746
5805 5804 5842 5860 5848 5844 5839 5839 5815 5791 5807 5799 5827 5804 5845 5878 5883 5885 5882 5882 5879 5870 5873 5858 5848 5838 5828 5820 5814 5806 5790 5779 5775 5771 5764 5759 5755 5748 5746 5745 5744 5743 5744 5743
5816 5823 5870 5861 5862 5856 5842 5822 5855 5831 5844 5827 5798 5807 5853 5872 5870 5873 5871 5874 5868 5867 5863 5856 5848 5839 5828 5819 5811 5805 5789 5780 5776 5769 5761 5752 5741 5730 5724 5736 5736 5736 5737 5738
5832 5806 5855 5863 5864 5860 5851 5868 5822 5831 5794 5790 5832 5818 5790 5830 5849 5856 5857 5856 5858 5860 5858 5851 5845 5837 5828 5820 5811 5802 5788 5778 5772 5765 5752 5736 5717 5715 5716 5727 5726 5729 5730 5733
5837 5819 5829 5856 5834 5833 5839 5831 5839 5848 5840 5796 5757 5770 5805 5798 5818 5849 5853 5854 5849 5852 5851 5847 5843 5839 5829 5818 5809 5792 5785 5773 5762 5754 5744 5731 5719 5712 5718 5723 5724 5726 5727 5729
5838 5821 5801 5824 5860 5859 5850 5842 5839 5814 5811 5824 5780 5793 5824 5818 5844 5853 5849 5849 5850 5852 5852 5848 5843 5834 5823 5815 5804 5790 5778 5764 5755 5747 5738 5730 5723 5717 5717 5722 5725 5723 5725 5725
5827 5808 5786 5801 5833 5854 5835 5843 5851 5844 5833 5808 5791 5796 5831 5828 5848 5847 5840 5841 5839 5844 5844 5841 5837 5823 5814 5805 5798 5784 5771 5760 5749 5744 5738 5731 5728 5727 5729 5730 5728 5726 5725 5723
5819 5812 5797 5788 5811 5842 5825 5832 5841 5836 5815 5821 5826 5819 5794 5794 5786 5806 5827 5833 5834 5835 5833 5831 5827 5812 5807 5801 5789 5776 5768 5758 5748 5742 5739 5734 5732 5730 5729 5729 5725 5722 5720 5719
5808 5783 5799 5812 5825 5831 5832 5832 5835 5823 5827 5811 5829 5805 5782 5783 5783 5779 5782 5828 5826 5826 5824 5822 5817 5807 5800 5794 5785 5776 5771 5759 5750 5743 5740 5734 5732 5730 5726 5722 5719 5717 5716 5714
5804 5776 5788 5786 5811 5816 5816 5834 5831 5836 5835 5833 5829 5790 5801 5794 5788 5753 5782 5814 5817 5817 5818 5817 5813 5809 5801 5792 5787 5779 5768 5758 5750 5744 5738 5733 5727 5722 5717 5714 5711 5711 5709 5708
5781 5777 5771 5761 5798 5803 5790 5818 5830 5838 5846 5834 5819 5808 5796 5790 5782 5785 5795 5810 5813 5815 5812 5810 5807 5805 5796 5792 5786 5777 5769 5759 5748 5744 5740 5733 5724 5716 5712 5707 5703 5703 5703 5702
5768 5769 5771 5760 5780 5749 5806 5843 5844 5834 5843 5843 5821 5808 5802 5803 5798 5801 5809 5807 5807 5808 5806 5805 5802 5798 5793 5791 5782 5777 5769 5759 5751 5745 5741 5734 5725 5716 5711 5703 5695 5698 5697 5696
5780 5766 5759 5745 5756 5783 5805 5824 5830 5826 5824 5847 5812 5792 5799 5804 5799 5791 5801 5804 5802 5798 5794 5792 5790 5790 5789 5783 5778 5771 5764 5759 5754 5744 5739 5732 5727 5715 5708 5702 5699 5697 5694 5691
5775 5770 5754 5757 5748 5746 5803 5816 5832 5849 5804 5819 5787 5764 5756 5773 5767 5778 5791 5794 5796 5790 5783 5781 5784 5787 5778 5777 5776 5766 5760 5756 5749 5748 5740 5735 5728 5719 5710 5705 5700 5697 5692 5690
5751 5751 5745 5749 5748 5776 5776 5798 5816 5765 5768 5810 5800 5789 5785 5779 5786 5781 5780 5784 5786 5782 5770 5777 5779 5778 5774 5771 5767 5761 5758 5752 5751 5748 5742 5734 5728 5720 5715 5711 5704 5698 5693 5690
5732 5734 5743 5754 5751 5746 5757 5771 5748 5758 5788 5796 5807 5798 5781 5782 5776 5774 5780 5784 5780 5768 5763 5766 5764 5761 5761 5761 5758 5754 5750 5752 5749 5745 5738 5731 5726 5721 5715 5709 5704 5699 5694 5689
5717 5708 5679 5710 5732 5735 5736 5725 5744 5767 5767 5779 5787 5786 5782 5780 5779 5780 5776 5775 5768 5763 5758 5756 5750 5747 5745 5746 5743 5742 5740 5740 5737 5730 5727 5724 5720 5717 5714 5707 5701 5698 5695 5690
5713 5711 5692 5685 5710 5724 5733 5734 5725 5728 5753 5774 5766 5779 5782 5775 5770 5765 5763 5760 5756 5756 5754 5751 5747 5735 5727 5729 5731 5728 5731 5727 5723 5721 5717 5716 5711 5706 5702 5701 5698 5696 5692 5687
5684 5685 5682 5703 5721 5717 5729 5730 5731 5732 5742 5748 5762 5771 5770 5764 5757 5753 5746 5743 5742 5742 5743 5741 5734 5730 5722 5722 5720 5720 5719 5717 5713 5711 5708 5704 5702 5696 5689 5682 5680 5682 5687 5683
5677 5659 5656 5665 5686 5723 5710 5726 5742 5734 5733 5748 5751 5755 5759 5755 5749 5745 5739 5738 5737 5730 5731 5728 5724 5721 5717 5715 5710 5708 5708 5708 5705 5701 5700 5698 5695 5688 5679 5673 5670 5667 5669 5673